CAPE
0 0 0 0 0 0 0 0 0 0 0 0 1 25 59 89 34 7 31 447 162 600 954 1071 1635 2166 2445 2500 2470 2366 2195 2100 2117 2099 1921 1661 1439 1020 591 405 124 5 0 0 0 0 0 0 0
0 0 0 0 0 0 0 0 0 0 0 0 8 17 75 105 32 275 580 271 181 654 815 494 1508 2013 2371 2422 2350 2278 2245 2204 2162 2059 1872 1623 1434 1081 378 72 12 0 0 0 0 0 0 0 0
0 0 0 0 0 0 0 0 0 0 0 4 1 0 64 120 78 10 735 227 134 540 576 640 1428 1818 2265 2357 2233 2147 2192 2190 2136 2028 1850 1508 1316 937 517 193 66 1 0 0 0 0 0 0 0
0 0 0 0 0 0 0 0 0 0 0 84 6 18 115 110 25 412 783 258 199 203 421 1354 1321 1418 1920 2202 2137 2078 2149 2181 2113 1969 1778 1458 1062 808 491 262 143 19 0 0 0 6 28 0 20
0 0 0 0 0 0 0 0 0 0 6 8 7 4 110 93 121 1148 863 509 190 89 606 1181 1355 1299 1431 1888 1948 1959 1999 1961 1975 1924 1736 1391 1086 786 521 333 92 58 73 9 23 120 134 164 184
0 0 0 0 0 0 0 0 0 0 0 14 6 16 65 111 143 826 843 547 248 85 892 898 1530 1374 1211 1257 1481 1571 1640 1656 1709 1694 1605 1370 1033 813 523 337 193 190 176 161 212 248 273 284 366
0 0 0 0 0 0 0 0 0 0 0 10 34 27 100 60 77 393 517 576 416 360 702 692 995 1366 1491 1223 1039 1036 1127 1191 1235 1204 1177 1101 967 730 448 291 234 248 243 274 348 404 467 576 635
0 0 0 0 0 0 0 0 0 0 0 0 0 0 41 62 21 177 381 522 500 1075 813 719 651 1028 1090 1098 1304 1072 952 891 877 909 953 933 912 675 450 246 241 274 348 433 566 618 689 853 1018
0 0 0 0 0 0 0 0 0 0 0 0 0 37 95 103 30 46 213 403 618 1163 893 698 522 584 706 887 1125 1271 1120 1079 927 893 948 683 359 279 161 177 209 345 418 575 714 801 893 1060 1149
0 0 0 0 0 0 0 0 0 0 0 0 1 137 95 92 32 129 12 127 478 1328 1242 742 570 309 239 238 502 766 613 640 535 381 375 293 126 49 54 120 290 355 497 704 801 965 1143 1147 796
0 0 0 0 0 0 0 0 0 0 0 0 0 49 96 112 45 23 13 12 47 135 1683 1392 904 361 90 68 181 408 331 362 328 245 157 158 25 0 25 2 75 84 276 257 543 728 855 708 719
0 0 0 0 0 0 0 0 0 0 0 0 0 0 21 164 128 66 29 15 6 51 1514 1769 1396 885 504 150 148 253 147 135 112 115 94 72 0 0 0 0 0 0 83 171 208 437 641 606 505
0 0 0 0 0 0 0 0 0 0 0 0 0 0 0 85 135 169 52 32 0 6 730 558 1325 913 785 493 376 311 265 146 89 77 45 1 25 0 0 0 0 0 83 151 70 196 339 378 408
0 0 0 0 0 0 0 0 0 0 0 0 0 0 0 0 51 56 40 11 15 4 18 677 1315 1251 987 758 773 660 491 372 285 239 262 287 143 20 0 0 0 13 25 95 45 69 280 369 531
0 0 0 0 0 0 0 0 0 0 0 0 0 0 0 0 16 1 4 69 36 13 10 1445 1739 2015 2213 1793 1661 1322 853 772 703 606 582 515 494 405 303 209 196 113 48 132 169 160 330 452 826
0 0 0 0 0 0 0 0 0 0 0 0 0 0 0 0 0 0 0 6 22 11 4 46 1735 2415 2130 2009 1773 1612 1917 1632 1147 1032 859 918 874 720 615 548 528 486 348 237 370 422 305 614 588
0 0 0 0 0 0 0 0 0 0 0 0 0 0 1 1 0 0 0 0 0 0 2 16 615 2235 2326 2346 2247 2090 1798 1629 1906 1472 1244 1239 1182 1145 976 834 761 762 689 471 363 516 446 391 1041
0 0 0 0 0 0 0 0 0 0 0 0 0 0 0 3 0 0 0 9 0 15 6 241 209 1253 2382 2646 2517 2528 2527 2182 1722 1428 1457 1353 1386 1291 1263 1097 1036 927 893 761 434 456 613 658 760
0 0 0 0 0 0 0 0 0 0 0 0 0 0 0 0 0 0 4 2 43 153 255 291 243 458 1965 2263 2423 2260 2136 2080 1955 1779 1465 1057 1588 1594 1456 1337 1198 1057 980 930 602 593 552 670 611
0 0 0 0 0 0 0 0 0 0 0 0 0 0 0 0 0 0 0 0 17 195 148 93 64 31 101 107 348 692 1165 1207 895 457 562 862 1632 1909 1736 1545 1386 1211 1083 1017 824 716 670 602 726
0 0 0 0 0 0 0 0 0 0 0 0 0 0 0 0 0 0 0 0 19 153 130 165 57 12 11 38 111 176 108 108 251 507 588 931 1861 1937 1949 1787 1605 1444 1423 1157 1034 836 654 572 815
0 0 0 0 0 0 0 0 0 0 0 0 0 0 0 0 0 0 0 0 0 71 12 41 148 199 174 109 156 466 263 222 67 0 1338 1758 2025 1978 1918 1807 1655 1452 1469 1435 1180 947 778 579 707
0 11 0 0 0 0 0 0 0 0 0 0 0 0 0 0 0 0 0 0 0 0 67 183 60 0 0 29 76 150 264 428 525 351 1525 1794 1838 1892 1748 1850 1714 1541 1574 1486 1271 1065 850 778 630
24 6 0 0 0 0 0 0 0 0 0 0 0 0 0 0 0 0 0 0 0 0 0 0 0 31 1 0 357 371 390 411 659 1198 1826 1609 1576 1721 1770 1681 1588 1548 1402 1652 1562 1130 866 739 657
6 2 0 0 0 0 0 0 0 0 0 0 0 0 0 0 0 0 0 0 0 0 0 0 0 0 0 176 307 284 245 214 463 1841 2007 1648 1610 1554 1528 1481 1317 1407 1333 1482 1451 1047 959 871 1103
0 13 0 0 0 0 4 0 0 0 0 0 0 0 0 0 0 0 0 0 0 0 0 0 0 36 438 366 873 935 841 638 1064 1940 1933 1682 1606 1590 1598 1422 1217 1304 1336 1291 1103 935 1060 1098 856
39 2 21 6 25 3 0 0 0 0 1 0 0 0 0 0 0 0 0 0 0 0 0 0 0 179 676 830 782 1052 1155 730 1907 1998 2012 1738 1667 1558 1174 1058 1194 1478 1317 1268 1255 1212 1019 773 541
7 9 1 22 0 0 0 0 0 14 11 30 3 0 0 0 0 0 0 0 0 0 0 0 0 9 389 751 1035 1513 1606 1984 2425 2318 2091 1957 1680 1277 1055 1239 1250 1271 1265 1246 1185 877 632 731 459
4 70 32 5 32 18 0 0 73 2 9 11 9 0 0 2 2 16 564 965 36 395 731 1004 1650 1401 1629 1632 1636 2051 2227 2430 2519 2343 2057 1610 1127 1120 1077 1499 1441 1352 1092 1029 687 627 432 409 392
4 48 2 23 12 25 13 0 19 7 0 1 18 0 19 27 31 362 1090 1121 1077 2021 1995 1739 1634 1653 1756 1888 2071 2131 2288 2396 2202 1661 1913 1618 1619 1443 1404 1361 1193 1101 807 698 510 334 469 464 276
CIN
-0 -0 -0 -0 -0 -0 -0 -0 -0 -0 -0 -0 -7 -13 -69 -62 -64 -20 -200 -223 -658 -758 -716 -642 -532 -417 -303 -244 -182 -163 -152 -144 -113 -102 -93 -103 -98 -133 -169 -182 -226 -50 -0 -0 -0 -0 -0 -0 -0
-0 -0 -0 -0 -0 -0 -0 -0 -0 -0 -0 -0 -61 -29 -60 -63 -70 -283 -403 -212 -717 -784 -780 -781 -567 -433 -323 -269 -211 -191 -178 -146 -123 -115 -108 -114 -119 -144 -227 -271 -307 -0 -0 -0 -0 -0 -0 -0 -0
-0 -0 -0 -0 -0 -0 -0 -0 -0 -0 -0 -4 -10 -0 -49 -55 -36 -107 -296 -630 -832 -799 -841 -789 -573 -477 -361 -294 -243 -222 -197 -166 -141 -136 -131 -141 -144 -173 -227 -274 -320 -54 -0 -0 -0 -0 -0 -0 -0
-0 -0 -0 -0 -0 -0 -0 -0 -0 -0 -0 -32 -34 -81 -81 -53 -60 -247 -439 -667 -795 -870 -832 -633 -591 -538 -410 -316 -281 -263 -227 -195 -163 -158 -147 -166 -193 -205 -247 -280 -305 -365 -0 -0 -0 -366 -424 -0 -396
-0 -0 -0 -0 -0 -0 -0 -0 -0 -0 -52 -9 -29 -13 -75 -95 -259 -286 -435 -572 -788 -877 -774 -665 -588 -566 -488 -353 -319 -301 -271 -245 -207 -192 -176 -196 -214 -225 -261 -281 -358 -383 -364 -97 -417 -313 -318 -303 -291
-0 -0 -0 -0 -0 -0 -0 -0 -0 -0 -0 -14 -12 -31 -57 -77 -244 -276 -354 -494 -633 -812 -777 -705 -537 -540 -535 -484 -412 -356 -327 -297 -256 -239 -214 -231 -248 -242 -272 -301 -358 -352 -349 -319 -298 -281 -273 -277 -258
-0 -0 -0 -0 -0 -0 -0 -0 -0 -0 -0 -10 -63 -14 -81 -138 -179 -250 -296 -373 -455 -638 -785 -757 -648 -530 -471 -490 -495 -446 -398 -366 -345 -334 -309 -310 -289 -307 -319 -360 -382 -357 -318 -300 -263 -257 -249 -227 -199
-0 -0 -0 -0 -0 -0 -0 -0 -0 -0 -0 -0 -0 -0 -17 -20 -172 -137 -195 -252 -330 -558 -682 -758 -715 -588 -548 -518 -452 -466 -450 -436 -433 -405 -376 -358 -314 -330 -358 -414 -412 -369 -322 -284 -245 -232 -206 -190 -158
-0 -0 -0 -0 -0 -0 -0 -0 -0 -0 -0 -0 -5 -98 -65 -50 -84 -94 -54 -133 -244 -437 -530 -677 -739 -694 -633 -563 -484 -437 -435 -422 -442 -425 -407 -436 -497 -493 -537 -502 -460 -367 -326 -272 -222 -209 -181 -167 -136
-0 -0 -0 -0 -0 -0 -0 -0 -0 -0 -0 -0 -5 -17 -40 -49 -306 -48 -27 -33 -129 -334 -480 -603 -697 -770 -738 -661 -607 -555 -573 -540 -555 -585 -576 -584 -626 -649 -667 -602 -452 -390 -329 -259 -205 -165 -129 -137 -215
-0 -0 -0 -0 -0 -0 -0 -0 -0 -0 -0 -0 -0 -26 -39 -56 -113 -61 -93 -32 -21 -119 -297 -470 -534 -637 -234 -657 -677 -658 -672 -645 -660 -677 -704 -683 -728 -0 -718 -110 -627 -595 -420 -409 -286 -221 -189 -226 -229
-0 -0 -0 -0 -0 -0 -0 -0 -0 -0 -0 -0 -0 -0 -8 -31 -24 -5 -7 -29 -323 -235 -53 -247 -260 -189 -151 -118 -633 -678 -748 -801 -804 -788 -766 -761 -53 -0 -0 -0 -0 -0 -583 -467 -420 -322 -245 -248 -266
-0 -0 -0 -0 -0 -0 -0 -0 -0 -0 -0 -0 -0 -0 -0 -8 -12 -34 -53 -41 -0 -103 -72 -119 -240 -283 -162 -152 -610 -648 -694 -760 -219 -473 -585 -100 -830 -0 -0 -0 -0 -0 -610 -510 -538 -428 -351 -333 -324
-0 -0 -0 -0 -0 -0 -0 -0 -0 -0 -0 -0 -0 -0 -0 -12 -2 -7 -8 -19 -4 -20 -14 -193 -232 -283 -154 -141 -433 -509 -404 -162 -205 -257 -272 -244 -234 -163 -0 -0 -0 -609 -681 -571 -556 -521 -388 -358 -271
-0 -0 -0 -0 -0 -0 -0 -0 -0 -0 -0 -0 -0 -0 -0 -0 -9 -24 -13 -17 -21 -45 -99 -105 -167 -206 -216 -189 -213 -391 -305 -396 -333 -283 -292 -257 -217 -211 -219 -208 -207 -186 -488 -411 -363 -331 -366 -313 -209
-0 -0 -0 -0 -0 -0 -0 -0 -0 -0 -0 -0 -0 -0 -0 -0 -0 -0 -0 -42 -36 -50 -50 -156 -132 -198 -224 -229 -269 -194 -204 -218 -269 -237 -234 -164 -142 -149 -183 -193 -199 -193 -168 -336 -298 -241 -273 -251 -246
-0 -0 -0 -0 -0 -0 -0 -0 -0 -0 -0 -0 -0 -0 -3 -76 -0 -0 -0 -0 -0 -0 -15 -31 -161 -250 -263 -293 -300 -318 -311 -244 -148 -132 -148 -142 -118 -115 -130 -148 -163 -163 -151 -175 -269 -222 -211 -243 -93
-0 -0 -0 -0 -0 -0 -0 -0 -0 -0 -0 -0 -0 -0 -0 -9 -0 -17 -20 -125 -18 -180 -206 -360 -282 -244 -282 -269 -215 -215 -229 -214 -213 -194 -143 -111 -94 -97 -105 -119 -148 -146 -138 -152 -218 -216 -150 -118 -97
-0 -0 -0 -0 -0 -0 -0 -0 -0 -0 -0 -0 -0 -0 -0 -0 -0 -0 -62 -68 -181 -280 -172 -178 -281 -235 -216 -210 -192 -198 -217 -213 -182 -147 -129 -137 -161 -74 -83 -108 -133 -133 -145 -140 -197 -161 -149 -115 -122
-0 -0 -0 -0 -0 -0 -0 -0 -0 -0 -0 -0 -0 -0 -0 -0 -0 -0 -0 -2 -80 -171 -172 -247 -224 -249 -342 -431 -319 -247 -181 -178 -185 -203 -304 -244 -225 -113 -80 -98 -123 -130 -155 -124 -136 -133 -127 -114 -101
-0 -0 -0 -0 -0 -0 -0 -0 -0 -0 -0 -0 -0 -0 -0 -0 -0 -0 -0 -0 -112 -231 -261 -451 -388 -400 -468 -534 -607 -516 -407 -360 -316 -309 -206 -331 -165 -107 -106 -109 -117 -143 -117 -115 -118 -117 -120 -149 -87
-0 -0 -0 -0 -0 -0 -0 -0 -0 -0 -0 -0 -0 -0 -0 -0 -0 -0 -0 -0 -10 -151 -286 -282 -295 -302 -369 -503 -459 -377 -359 -326 -336 -0 -116 -131 -101 -85 -147 -136 -151 -123 -115 -94 -102 -95 -106 -111 -86
-2 -37 -0 -0 -0 -0 -0 -0 -0 -0 -0 -0 -0 -0 -0 -0 -0 -0 -0 -0 -0 -0 -157 -186 -286 -0 -0 -366 -472 -443 -401 -259 -230 -229 -66 -42 -91 -105 -139 -144 -123 -115 -93 -87 -88 -84 -84 -70 -60
-25 -56 -0 -0 -0 -0 -0 -0 -0 -0 -0 -0 -0 -0 -0 -0 -0 -0 -0 -0 -0 -0 -0 -0 -0 -326 -28 -0 -386 -299 -275 -233 -200 -133 -49 -51 -159 -137 -126 -132 -114 -107 -106 -54 -39 -66 -58 -52 -77
-17 -38 -0 -0 -0 -0 -0 -0 -0 -0 -0 -0 -0 -0 -0 -0 -0 -0 -0 -0 -0 -0 -0 -0 -0 -0 -0 -395 -399 -347 -324 -325 -161 -64 -22 -92 -155 -152 -145 -123 -148 -114 -95 -47 -26 -50 -26 -50 -10
-0 -34 -0 -0 -0 -0 -13 -0 -0 -0 -0 -0 -0 -0 -0 -0 -0 -0 -0 -0 -0 -0 -0 -0 -0 -411 -382 -365 -306 -264 -185 -166 -109 -51 -19 -53 -79 -87 -58 -81 -143 -91 -54 -32 -43 -52 -21 -5 -4
-22 -4 -37 -20 -16 -1 -0 -0 -0 -0 -11 -3 -0 -0 -0 -0 -0 -0 -0 -0 -0 -0 -0 -0 -0 -288 -253 -223 -245 -162 -161 -162 -71 -42 -24 -38 -48 -39 -63 -173 -119 -38 -32 -15 -2 -4 -3 -3 -13
-28 -47 -14 -27 -0 -0 -0 -0 -0 -147 -25 -12 -21 -0 -0 -0 -0 -0 -0 -0 -0 -0 -0 -0 -0 -246 -234 -242 -213 -120 -94 -50 -13 -6 -8 -6 -13 -50 -143 -105 -65 -42 -8 -8 -0 -0 -9 -14 -22
-43 -9 -27 -34 -45 -15 -0 -0 -113 -51 -40 -9 -7 -0 -0 -113 -71 -40 -114 -43 -170 -344 -234 -272 -137 -139 -106 -90 -77 -27 -20 -6 -2 -1 -3 -13 -104 -113 -110 -18 -6 -5 -9 -0 -0 -15 -17 -19 -28
-18 -21 -23 -24 -8 -12 -10 -0 -73 -25 -2 -1 -7 -0 -100 -60 -34 -24 -35 -55 -35 -89 -73 -61 -96 -94 -71 -32 -14 -13 -3 -2 -1 -12 -38 -35 -12 -5 -5 -3 -0 -0 -3 -16 -0 -27 -18 -10 -14
Wind_Speed
nan nan nan nan nan nan nan nan nan nan nan nan nan nan nan nan nan nan nan 25 23 23 22 25 27 26 29 30 25 27 24 24 26 29 29 31 30 32 32 32 31 nan nan nan nan nan nan nan nan
nan nan nan nan nan nan nan nan nan nan nan nan nan nan nan 39 nan 41 26 23 26 22 22 22 29 29 28 30 27 28 28 27 30 30 31 30 35 35 35 nan nan nan nan nan nan nan nan nan nan
nan nan nan nan nan nan nan nan nan nan nan nan nan nan nan 49 nan nan 32 25 25 20 22 26 34 32 31 30 26 26 28 28 29 32 35 36 38 35 37 36 nan nan nan nan nan nan nan nan nan
nan nan nan nan nan nan nan nan nan nan nan nan nan nan 44 50 nan 34 36 30 29 24 26 32 34 33 33 32 27 24 24 26 30 33 36 39 39 38 38 38 39 nan nan nan nan nan nan nan nan
nan nan nan nan nan nan nan nan nan nan nan nan nan nan 44 nan 44 42 32 29 34 nan 28 33 34 34 33 31 25 23 24 30 34 39 40 41 41 41 39 39 nan nan nan nan nan 32 31 31 29
nan nan nan nan nan nan nan nan nan nan nan nan nan nan nan 41 50 38 37 36 36 nan 35 35 33 34 33 31 25 24 30 34 37 41 44 43 43 41 39 38 39 38 38 36 34 33 31 30 31
nan nan nan nan nan nan nan nan nan nan nan nan nan nan 33 nan nan 40 41 40 38 38 39 38 32 32 34 31 31 26 29 35 40 43 44 42 43 43 41 41 41 39 39 37 34 32 31 30 28
nan nan nan nan nan nan nan nan nan nan nan nan nan nan nan nan nan 41 37 39 43 42 39 39 32 30 29 28 33 32 35 34 40 42 44 43 42 42 42 41 41 42 40 39 34 31 30 32 29
nan nan nan nan nan nan nan nan nan nan nan nan nan nan nan 40 nan nan 38 40 41 37 37 35 34 31 29 26 27 31 36 35 41 42 43 40 37 38 40 39 39 42 42 40 35 31 29 30 27
nan nan nan nan nan nan nan nan nan nan nan nan nan 32 nan nan nan 53 nan 29 41 38 35 36 36 35 33 23 26 28 32 32 33 34 35 35 39 nan nan 41 41 42 43 42 35 31 30 29 26
nan nan nan nan nan nan nan nan nan nan nan nan nan nan nan 58 nan nan nan nan nan 45 40 34 35 36 nan nan 27 28 30 32 33 35 37 38 nan nan nan nan nan nan 42 36 32 31 29 29 31
nan nan nan nan nan nan nan nan nan nan nan nan nan nan nan 40 40 nan nan nan nan nan 37 32 32 30 22 37 31 34 35 34 34 35 nan nan nan nan nan nan nan nan nan 35 31 32 32 29 34
nan nan nan nan nan nan nan nan nan nan nan nan nan nan nan nan 41 44 nan nan nan nan 43 27 39 24 40 38 37 36 36 32 nan nan nan nan nan nan nan nan nan nan nan 35 nan 33 32 31 34
nan nan nan nan nan nan nan nan nan nan nan nan nan nan nan nan nan nan nan nan nan nan nan 53 53 48 41 40 40 41 40 36 36 36 41 46 45 nan nan nan nan nan nan nan nan nan 32 32 34
nan nan nan nan nan nan nan nan nan nan nan nan nan nan nan nan nan nan nan nan nan nan nan 53 55 55 43 39 43 46 44 38 39 37 43 47 48 48 44 41 36 36 nan 35 35 33 32 33 36
nan nan nan nan nan nan nan nan nan nan nan nan nan nan nan nan nan nan nan nan nan nan nan nan 52 51 52 45 44 48 46 43 39 40 43 46 50 52 45 42 37 36 37 36 34 33 32 31 37
nan nan nan nan nan nan nan nan nan nan nan nan nan nan nan nan nan nan nan nan nan nan nan nan 51 59 57 51 49 44 45 41 37 44 46 48 52 53 46 42 40 38 36 35 34 32 31 28 30
nan nan nan nan nan nan nan nan nan nan nan nan nan nan nan nan nan nan nan nan nan nan nan 58 60 66 61 54 47 42 42 38 41 44 44 50 54 59 49 45 45 42 33 31 34 32 28 27 31
nan nan nan nan nan nan nan nan nan nan nan nan nan nan nan nan nan nan nan nan nan 63 70 65 66 65 60 54 47 44 42 41 44 46 45 46 56 59 52 47 47 43 33 31 33 30 29 26 31
nan nan nan nan nan nan nan nan nan nan nan nan nan nan nan nan nan nan nan nan nan 63 69 nan nan nan 54 49 43 48 48 50 49 47 45 44 53 56 51 49 49 38 34 33 31 30 28 29 33
nan nan nan nan nan nan nan nan nan nan nan nan nan nan nan nan nan nan nan nan nan 65 68 69 nan nan nan nan 45 48 55 54 53 48 48 47 55 53 52 49 41 35 33 31 29 30 31 31 30
nan nan nan nan nan nan nan nan nan nan nan nan nan nan nan nan nan nan nan nan nan nan nan nan 60 59 48 46 49 52 50 52 nan nan 51 49 48 49 50 44 38 35 30 29 29 30 31 34 32
nan nan nan nan nan nan nan nan nan nan nan nan nan nan nan nan nan nan nan nan nan nan nan 44 nan nan nan nan nan 43 46 43 43 46 47 41 42 47 44 40 38 35 29 28 30 32 33 31 32
nan nan nan nan nan nan nan nan nan nan nan nan nan nan nan nan nan nan nan nan nan nan nan nan nan nan nan nan 35 38 42 38 37 39 40 36 39 41 38 39 36 32 29 28 30 31 33 32 30
nan nan nan nan nan nan nan nan nan nan nan nan nan nan nan nan nan nan nan nan nan nan nan nan nan nan nan 36 36 36 37 40 37 37 37 37 37 34 36 36 33 29 31 29 31 30 29 30 29
nan nan nan nan nan nan nan nan nan nan nan nan nan nan nan nan nan nan nan nan nan nan nan nan nan nan 31 34 35 37 39 39 39 33 33 36 33 34 34 32 30 30 29 26 29 27 29 30 29
nan nan nan nan nan nan nan nan nan nan nan nan nan nan nan nan nan nan nan nan nan nan nan nan nan 34 36 38 40 39 40 39 36 34 36 32 33 32 29 29 29 28 26 28 26 26 27 24 24
nan nan nan nan nan nan nan nan nan nan nan nan nan nan nan nan nan nan nan nan nan nan nan nan nan nan 36 37 36 38 38 39 35 35 33 31 29 28 27 29 27 27 27 26 27 25 22 25 23
nan nan nan nan nan nan nan nan nan nan nan nan nan nan nan nan nan nan 48 48 nan 34 39 36 38 44 43 41 37 35 36 33 32 31 30 29 27 26 26 26 26 26 27 26 26 23 24 24 26
nan nan nan nan nan nan nan nan nan nan nan nan nan nan nan nan nan 55 43 38 33 39 43 44 43 46 44 40 37 34 32 31 31 29 27 25 25 23 24 25 26 28 27 25 24 22 22 25 23
Wind_Direction
nan nan nan nan nan nan nan nan nan nan nan nan nan nan nan nan nan nan nan 273 290 309 320 327 324 315 306 305 316 312 304 310 321 320 322 324 332 337 336 338 339 nan nan nan nan nan nan nan nan
nan nan nan nan nan nan nan nan nan nan nan nan nan nan nan 233 nan 247 249 297 309 308 307 318 315 317 316 307 321 320 316 317 324 330 334 330 333 337 337 nan nan nan nan nan nan nan nan nan nan
nan nan nan nan nan nan nan nan nan nan nan nan nan nan nan 252 nan nan 265 286 297 297 300 312 314 321 321 315 319 320 318 328 339 339 336 335 333 338 339 341 nan nan nan nan nan nan nan nan nan
nan nan nan nan nan nan nan nan nan nan nan nan nan nan 245 265 nan 257 271 283 285 285 294 305 312 318 323 323 323 324 330 335 340 343 346 342 340 342 343 345 345 nan nan nan nan nan nan nan nan
nan nan nan nan nan nan nan nan nan nan nan nan nan nan 257 nan 262 273 285 275 278 nan 285 294 309 315 325 335 325 331 340 339 341 347 350 346 345 346 346 346 nan nan nan nan nan 353 349 348 345
nan nan nan nan nan nan nan nan nan nan nan nan nan nan nan 262 273 269 263 268 275 nan 282 287 298 311 324 339 327 334 340 344 345 345 350 349 347 348 349 351 350 355 357 355 354 354 351 347 351
nan nan nan nan nan nan nan nan nan nan nan nan nan nan 236 nan nan 267 268 268 269 270 277 280 288 304 314 325 328 324 330 340 343 346 349 351 350 349 353 352 350 354 356 355 352 354 351 346 354
nan nan nan nan nan nan nan nan nan nan nan nan nan nan nan nan nan 238 251 266 267 265 269 278 285 294 301 311 326 324 328 338 343 348 350 351 353 352 352 351 351 352 354 352 350 353 348 350 354
nan nan nan nan nan nan nan nan nan nan nan nan nan nan nan 257 nan nan 236 253 259 262 270 277 288 291 290 296 313 322 335 339 343 347 350 350 347 349 351 349 350 352 349 349 351 348 344 350 355
nan nan nan nan nan nan nan nan nan nan nan nan nan 244 nan nan nan 265 nan 262 259 265 272 281 284 289 288 301 310 312 321 327 332 337 340 339 342 nan nan 346 348 350 349 345 348 343 342 347 337
nan nan nan nan nan nan nan nan nan nan nan nan nan nan nan 262 nan nan nan nan nan 218 241 254 277 288 nan nan 317 313 317 323 324 331 333 335 nan nan nan nan nan nan 345 333 336 330 329 334 329
nan nan nan nan nan nan nan nan nan nan nan nan nan nan nan 256 268 nan nan nan nan nan 204 269 299 299 321 312 319 321 319 320 317 327 nan nan nan nan nan nan nan nan nan 328 321 318 327 330 333
nan nan nan nan nan nan nan nan nan nan nan nan nan nan nan nan 261 248 nan nan nan nan 296 263 301 276 304 302 308 316 316 310 nan nan nan nan nan nan nan nan nan nan nan 325 nan 319 327 333 338
nan nan nan nan nan nan nan nan nan nan nan nan nan nan nan nan nan nan nan nan nan nan nan 272 275 280 293 298 306 307 311 311 311 319 327 333 333 nan nan nan nan nan nan nan nan nan 329 331 326
nan nan nan nan nan nan nan nan nan nan nan nan nan nan nan nan nan nan nan nan nan nan nan 258 270 283 292 302 295 299 303 305 309 319 327 331 333 334 331 325 320 314 nan 320 317 322 328 319 311
nan nan nan nan nan nan nan nan nan nan nan nan nan nan nan nan nan nan nan nan nan nan nan nan 282 288 297 300 295 295 298 300 308 313 319 326 333 336 327 323 316 308 310 319 316 322 323 320 328
nan nan nan nan nan nan nan nan nan nan nan nan nan nan nan nan nan nan nan nan nan nan nan nan 270 285 288 288 289 287 293 298 303 303 310 322 329 332 325 321 311 309 309 313 314 321 317 314 312
nan nan nan nan nan nan nan nan nan nan nan nan nan nan nan nan nan nan nan nan nan nan nan 261 267 271 277 279 281 280 283 292 295 298 303 313 320 326 324 315 310 304 314 307 311 311 310 307 311
nan nan nan nan nan nan nan nan nan nan nan nan nan nan nan nan nan nan nan nan nan 257 261 260 261 263 267 270 278 281 287 287 286 292 303 310 313 319 320 313 305 304 311 315 309 307 310 309 304
nan nan nan nan nan nan nan nan nan nan nan nan nan nan nan nan nan nan nan nan nan 260 266 nan nan nan 274 274 282 281 287 284 286 296 301 310 308 311 313 308 303 306 298 304 310 308 304 303 303
nan nan nan nan nan nan nan nan nan nan nan nan nan nan nan nan nan nan nan nan nan 248 258 265 nan nan nan nan 273 277 276 280 284 288 292 300 303 304 306 305 303 294 298 304 308 306 308 300 300
nan nan nan nan nan nan nan nan nan nan nan nan nan nan nan nan nan nan nan nan nan nan nan nan 270 274 281 282 274 277 286 288 nan nan 286 291 296 297 299 300 294 298 297 302 304 300 298 300 305
nan nan nan nan nan nan nan nan nan nan nan nan nan nan nan nan nan nan nan nan nan nan nan 270 nan nan nan nan nan 279 283 284 284 281 285 292 289 291 292 291 291 292 294 297 300 296 301 304 304
nan nan nan nan nan nan nan nan nan nan nan nan nan nan nan nan nan nan nan nan nan nan nan nan nan nan nan nan 287 287 287 285 278 278 286 286 281 283 288 290 290 293 292 294 295 297 305 306 304
nan nan nan nan nan nan nan nan nan nan nan nan nan nan nan nan nan nan nan nan nan nan nan nan nan nan nan 286 287 286 286 282 283 285 288 287 278 280 286 286 287 284 286 292 295 298 300 302 299
nan nan nan nan nan nan nan nan nan nan nan nan nan nan nan nan nan nan nan nan nan nan nan nan nan nan 271 271 271 272 273 272 274 286 280 278 278 283 285 283 283 287 294 294 293 296 297 299 296
nan nan nan nan nan nan nan nan nan nan nan nan nan nan nan nan nan nan nan nan nan nan nan nan nan 259 261 260 260 264 268 272 277 279 275 275 279 280 284 287 290 293 292 293 295 294 301 302 298
nan nan nan nan nan nan nan nan nan nan nan nan nan nan nan nan nan nan nan nan nan nan nan nan nan nan 260 261 261 262 268 271 277 278 276 279 276 281 288 291 294 292 295 294 292 296 299 297 300
nan nan nan nan nan nan nan nan nan nan nan nan nan nan nan nan nan nan 244 241 nan 248 256 256 251 252 253 256 256 259 261 275 273 270 273 274 278 282 287 290 291 292 289 291 293 297 296 299 305
nan nan nan nan nan nan nan nan nan nan nan nan nan nan nan nan nan 213 224 233 243 244 246 248 240 244 248 253 252 255 267 267 266 270 272 278 279 284 288 290 292 293 289 289 294 296 293 301 306